Location: Decatur Area Astronomy Club
(40.0275°N, 88.7810°W)
Time: 07:28:30
(UTC-05:00)

Amateur Radio Satellites - All Passes

Search period start: 29 March 2015 06:58
Search period end: 30 March 2015 06:58
Location: Decatur Area Astronomy Club, 40.0275°N, 88.7810°W

Satellite Date Start Highest point End Downlink Frequencies (MHz)
Time Altitude Azimuth
ISS 29 Mar 07:02:56 07:05:00 16° 229° (SW) 07:07:00 145.825
CUBESAT XI-V 29 Mar 07:04:07 07:08:43 50° 261° (W) 07:13:17 437.345
GONETS M04 29 Mar 07:24:55 07:33:46 78° 265° (W) 07:42:34
JAS-2 29 Mar 07:33:14 07:36:52 14° 306° (NW) 07:40:01 435.910
DANDE 29 Mar 07:35:41 07:38:55 23° 77° (ENE) 07:43:02 436.750
AO-7 29 Mar 07:38:06 07:42:57 17° 310° (NW) 07:47:25 29.400- 29.500
STRAND 1 29 Mar 07:42:51 07:47:42 40° 262° (W) 07:52:31 437.568
VERMONT LUNAR 29 Mar 07:55:47 07:59:09 81° 357° (N) 08:02:31 437.305
HO-68 29 Mar 08:01:20 08:01:54 10° 84° (E) 08:03:08 435.675
CUTE-I 29 Mar 08:01:58 08:06:59 42° 290° (WNW) 08:11:57 437.470
Cubesat XI-IV 29 Mar 08:02:04 08:07:05 42° 290° (WNW) 08:12:02 437.490
PRISM 29 Mar 08:04:59 08:06:44 12° 271° (W) 08:08:14 437.425
CUSAT 1 29 Mar 08:30:13 08:34:30 70° 261° (W) 08:40:15 437.405
GOMX 1 29 Mar 08:31:44 08:33:54 14° 91° (E) 08:36:20 467.674
PHONESAT 2.4 29 Mar 08:33:29 08:37:02 85° 354° (N) 08:40:35 2401.200-2431.200
CANX-2 29 Mar 08:33:45 08:35:45 13° 89° (E) 08:37:57 2200.000
CUTE 1.7 + AOD 2 29 Mar 08:47:05 08:49:52 17° 91° (E) 08:52:48 437.475
AAUSAT CUBESAT 2 29 Mar 09:12:30 09:15:30 19° 92° (E) 09:18:36 437.432
SEEDS 29 Mar 09:16:00 09:19:46 30° 95° (E) 09:23:34 437.485
DANDE 29 Mar 09:18:31 09:22:09 29° 263° (W) 09:26:42 436.750
BRITE-PL 29 Mar 09:20:07 09:24:19 76° 102° (ESE) 09:28:43 437.365/2234.400
GONETS M04 29 Mar 09:25:00 09:29:20 14° 282° (WNW) 09:33:02
BEESAT 2 29 Mar 09:32:12 09:33:44 12° 110° (ESE) 09:35:29 435.950
VERMONT LUNAR 29 Mar 09:33:32 09:36:53 72° 194° (SSW) 09:40:14 437.305
Oscar 11 29 Mar 09:36:04 09:38:49 17° 91° (E) 09:41:43 145.826/435.025
COMPASS 1 29 Mar 09:38:37 09:42:42 44° 98° (E) 09:46:47 437.405
CINEMA 3 29 Mar 09:39:37 09:43:24 28° 95° (E) 09:47:23 145.822/145.860
HO-68 29 Mar 09:43:53 09:51:05 71° 103° (ESE) 09:58:16 435.675
FUNcube-1 29 Mar 09:47:18 09:48:31 11° 88° (E) 09:50:01 145.935
ANTELSAT 29 Mar 09:48:03 09:51:07 20° 68° (ENE) 09:54:20 437.575/2403.000
UWE-3 29 Mar 09:49:41 09:52:19 16° 91° (E) 09:55:10 435.000/436.395/437.385
QB50P1 29 Mar 09:51:08 09:52:07 11° 64° (ENE) 09:53:20 145.935-145.965
DUCHIFAT 1 29 Mar 09:52:59 09:54:06 11° 64° (ENE) 09:55:28 145.980
CUBEBUG 2 29 Mar 09:53:36 09:56:58 21° 93° (E) 10:00:30 437.445
DOVE 4 29 Mar 09:57:55 10:02:15 86° 102° (ESE) 10:06:49 437.250
ZACube-1 29 Mar 09:58:51 10:01:30 16° 91° (E) 10:04:21 437.345
QB50P2 29 Mar 10:04:16 10:06:45 16° 67° (ENE) 10:09:24 145.880/145.840
BEESAT 3 29 Mar 10:07:10 10:10:52 35° 116° (ESE) 10:14:41 437.485
CANX-2 29 Mar 10:07:51 10:12:04 51° 286° (WNW) 10:16:14 2200.000
GOMX 1 29 Mar 10:08:14 10:12:22 48° 286° (WNW) 10:16:40 467.674
PHONESAT 2.4 29 Mar 10:11:53 10:15:25 80° 192° (SSW) 10:18:58 2401.200-2431.200
CUTE 1.7 + AOD 2 29 Mar 10:21:58 10:26:00 39° 288° (WNW) 10:30:00 437.475
DELFI C3 29 Mar 10:28:02 10:32:02 49° 99° (E) 10:36:01 145.870
POPSAT HIP 1 29 Mar 10:31:45 10:35:26 30° 70° (ENE) 10:39:09 437.405
BUGSAT 1 29 Mar 10:32:39 10:35:51 22° 69° (ENE) 10:39:06 437.445
AIST 2 29 Mar 10:40:53 10:44:17 24° 113° (ESE) 10:47:48 435.215
UKube-1 29 Mar 10:41:37 10:45:28 31° 97° (E) 10:49:20 .
NANOSAT C BR1 29 Mar 10:42:11 10:46:06 39° 72° (ENE) 10:50:03 145.865
UNISAT 6 29 Mar 10:42:47 10:47:02 81° 76° (ENE) 10:51:22 437.425
POLYITAN 1 29 Mar 10:46:08 10:50:08 45° 73° (ENE) 10:54:11 437.675
AAUSAT CUBESAT 2 29 Mar 10:47:24 10:51:16 34° 288° (WNW) 10:55:04 437.432
HUMSAT D 29 Mar 10:50:45 10:54:27 29° 96° (E) 10:58:13 437.325/437.525
DX 1 29 Mar 10:51:21 10:55:29 43° 99° (E) 10:59:37 434.975-435.025
SEEDS 29 Mar 10:52:03 10:55:28 23° 291° (WNW) 10:58:46 437.485
TIGRISAT 29 Mar 10:53:09 10:57:24 79° 258° (WSW) 11:01:43 435.000
BEESAT 2 29 Mar 11:07:22 11:11:27 59° 305° (NW) 11:15:34 435.950
Oscar 11 29 Mar 11:11:07 11:15:14 41° 288° (WNW) 11:19:20 145.826/435.025
VERMONT LUNAR 29 Mar 11:11:40 11:14:18 21° 209° (SSW) 11:16:55 437.305
COMPASS 1 29 Mar 11:15:25 11:18:05 16° 293° (WNW) 11:20:36 437.405
CINEMA 3 29 Mar 11:16:51 11:20:35 26° 289° (WNW) 11:24:20 145.822/145.860
FUNcube-1 29 Mar 11:20:59 11:25:20 64° 284° (WNW) 11:29:45 145.935
QB50P1 29 Mar 11:23:19 11:27:31 67° 259° (WSW) 11:31:44 145.935-145.965
ANTELSAT 29 Mar 11:23:51 11:27:44 34° 263° (W) 11:31:40 437.575/2403.000
UWE-3 29 Mar 11:24:54 11:29:07 46° 287° (WNW) 11:33:26 435.000/436.395/437.385
DUCHIFAT 1 29 Mar 11:25:18 11:29:29 65° 259° (W) 11:33:40 145.980
CUBEBUG 2 29 Mar 11:29:45 11:33:46 34° 288° (WNW) 11:37:50 437.445
VELOX 1 29 Mar 11:30:32 11:34:49 49° 100° (E) 11:39:06 145.980
CUBEBUG 1 29 Mar 11:31:42 11:35:06 23° 94° (E) 11:38:34 437.445
HO-68 29 Mar 11:32:45 11:38:14 23° 301° (WNW) 11:43:30 435.675
ZACube-1 29 Mar 11:33:56 11:38:08 45° 286° (WNW) 11:42:22 437.345
AISAT 29 Mar 11:35:05 11:39:27 58° 101° (E) 11:43:48 437.250
QB50P2 29 Mar 11:38:18 11:42:21 43° 261° (W) 11:46:24 145.880/145.840
50 SAT 29 Mar 11:38:47 11:42:49 69° 101° (E) 11:46:52 437.505
BEESAT 3 29 Mar 11:45:43 11:49:03 23° 313° (NW) 11:52:20 437.485
PHONESAT 2.4 29 Mar 11:50:30 11:53:32 26° 207° (SSW) 11:56:34 2401.200-2431.200
ESTCUBE 1 29 Mar 12:04:02 12:08:31 60° 101° (E) 12:12:58 437.505/2401.250
DELFI C3 29 Mar 12:04:41 12:06:51 14° 294° (WNW) 12:08:49 145.870
BUGSAT 1 29 Mar 12:07:34 12:11:13 29° 264° (W) 12:14:48 437.445
POPSAT HIP 1 29 Mar 12:08:05 12:11:23 21° 266° (W) 12:14:35 437.405
UKube-1 29 Mar 12:18:05 12:21:29 22° 292° (WNW) 12:24:47 .
AIST 2 29 Mar 12:18:51 12:22:45 33° 309° (NW) 12:26:40 435.215
NANOSAT C BR1 29 Mar 12:19:26 12:22:10 16° 268° (W) 12:24:46 145.865
YUBILEINY 29 Mar 12:19:39 12:23:46 15° 78° (ENE) 12:28:31 435.215
POLYITAN 1 29 Mar 12:23:57 12:26:22 14° 269° (W) 12:28:36 437.675
HUMSAT D 29 Mar 12:26:41 12:30:07 23° 291° (WNW) 12:33:29 437.325/437.525
DX 1 29 Mar 12:28:34 12:31:27 17° 294° (WNW) 12:34:10 434.975-435.025
Oscar 19 29 Mar 12:38:01 12:42:04 25° 67° (ENE) 12:46:14 437.125/150
TISAT 1 29 Mar 13:06:41 13:10:49 56° 100° (E) 13:14:56 437.305
CUBEBUG 1 29 Mar 13:07:43 13:11:31 30° 290° (WNW) 13:15:14 437.445
VELOX 1 29 Mar 13:08:23 13:11:02 15° 295° (WNW) 13:13:32 145.980
AISAT 29 Mar 13:13:23 13:15:38 13° 295° (WNW) 13:17:40 437.250
SPROUT 29 Mar 13:16:38 13:20:56 90° 80° (E) 13:25:14 437.525
ESTCUBE 1 29 Mar 13:42:37 13:44:56 14° 296° (WNW) 13:47:04 437.505/2401.250
ITAMSAT 1 29 Mar 13:42:43 13:47:20 33° 69° (ENE) 13:52:00 435.822/435.867
SWISSCUBE 29 Mar 13:50:42 13:54:47 28° 95° (E) 13:58:54 437.505
BEESAT 29 Mar 13:53:41 13:57:45 28° 95° (E) 14:01:51 436.000
PCSat 29 Mar 13:57:53 14:01:39 20° 107° (ESE) 14:05:36 145.827
O/OREOS (USA 219) 29 Mar 14:02:06 14:06:35 54° 65° (ENE) 14:11:01 437.305
YUBILEINY 29 Mar 14:10:35 14:19:23 82° 95° (E) 14:28:16 435.215
Oscar 19 29 Mar 14:16:29 14:21:15 38° 263° (W) 14:26:01 437.125/150
JAS-2 29 Mar 14:16:34 14:18:30 11° 52° (NE) 14:20:55 435.910
Gurwin Techsat 1B 29 Mar 14:30:48 14:36:05 74° 75° (ENE) 14:41:25 435.225
ITUPSAT 1 29 Mar 14:40:02 14:44:52 83° 103° (ESE) 14:49:40 437.325
TISAT 1 29 Mar 14:44:18 14:46:12 13° 295° (WNW) 14:47:55 437.305
AO-7 29 Mar 14:49:59 14:57:00 33° 60° (ENE) 15:04:11 29.400- 29.500
HORYU 2 29 Mar 15:12:37 15:16:46 42° 72° (ENE) 15:21:00 437.375
ITAMSAT 1 29 Mar 15:22:18 15:26:51 29° 265° (W) 15:31:21 435.822/435.867
SWISSCUBE 29 Mar 15:28:27 15:32:38 30° 291° (WNW) 15:36:43 437.505
BEESAT 29 Mar 15:31:24 15:35:36 30° 291° (WNW) 15:39:41 436.000
AIST 1 29 Mar 15:34:44 15:39:04 73° 81° (E) 15:43:19
KKS-1 29 Mar 15:38:27 15:42:53 67° 101° (ESE) 15:47:18 437.445
PCSat 29 Mar 15:39:24 15:44:42 54° 303° (WNW) 15:50:02 145.827
O/OREOS (USA 219) 29 Mar 15:43:13 15:45:35 14° 260° (W) 15:47:42 437.305
JAS-2 29 Mar 15:55:16 16:01:58 58° 70° (ENE) 16:09:25 435.910
STARS 29 Mar 16:10:20 16:14:46 86° 284° (WNW) 16:19:11 437.465
YUBILEINY 29 Mar 16:10:58 16:17:29 21° 298° (WNW) 16:23:36 435.215
Gurwin Techsat 1B 29 Mar 16:14:11 16:16:45 13° 272° (W) 16:18:58 435.225
ITUPSAT 1 29 Mar 16:20:34 16:22:09 11° 298° (WNW) 16:23:29 437.325
AO-7 29 Mar 16:41:18 16:49:28 58° 258° (WSW) 16:57:36 29.400- 29.500
HORYU 2 29 Mar 16:50:43 16:53:41 17° 268° (W) 16:56:31 437.375
MOZHAYETS 4 29 Mar 17:14:03 17:18:26 40° 97° (E) 17:22:49
KKS-1 29 Mar 17:17:11 17:19:02 12° 296° (WNW) 17:20:42 437.445
PCSat 29 Mar 17:28:29 17:29:29 10° 325° (NW) 17:30:12 145.827
JAS-2 29 Mar 17:41:45 17:47:32 27° 271° (W) 17:53:37 435.910
CUTE-I 29 Mar 17:43:36 17:48:26 37° 69° (ENE) 17:53:21 437.470
Cubesat XI-IV 29 Mar 17:43:47 17:48:40 37° 69° (ENE) 17:53:37 437.490
AUBIESAT-1 29 Mar 18:03:57 18:08:28 39° 101° (ESE) 18:12:54 437.475
SO-50 29 Mar 18:16:23 18:19:54 22° 112° (ESE) 18:23:37 436.795
BEESAT 3 29 Mar 18:27:03 18:30:09 21° 46° (NE) 18:33:18 437.485
M-CUBED/EXP-1 PRIME 29 Mar 18:28:18 18:33:11 79° 106° (ESE) 18:37:58 437.505
GONETS M04 29 Mar 18:30:43 18:37:10 25° 83° (E) 18:43:58
RS-15 29 Mar 18:41:26 18:51:31 48° 111° (ESE) 19:01:52 29.354- 29.394
MOZHAYETS 4 29 Mar 18:51:58 18:55:25 20° 293° (WNW) 18:58:44
CUBESAT XI-V 29 Mar 19:01:34 19:05:58 42° 98° (E) 19:10:21 437.345
AIST 2 29 Mar 19:03:21 19:06:04 16° 43° (NE) 19:08:50 435.215
CUTE-I 29 Mar 19:24:01 19:28:37 28° 266° (W) 19:33:07 437.470
Cubesat XI-IV 29 Mar 19:24:18 19:28:52 27° 266° (W) 19:33:22 437.490
BEESAT 2 29 Mar 19:27:28 19:31:36 67° 57° (ENE) 19:35:40 435.950
AUBIESAT-1 29 Mar 19:39:08 19:43:03 24° 298° (WNW) 19:46:49 437.475
GOMX 1 29 Mar 19:40:05 19:42:30 15° 67° (ENE) 19:45:03 467.674
CUTE 1.7 + AOD 2 29 Mar 19:40:57 19:42:32 12° 65° (ENE) 19:44:21 437.475
PRISM 29 Mar 19:45:17 19:49:29 80° 284° (WNW) 19:53:37 437.425
STRAND 1 29 Mar 19:53:38 19:58:46 73° 102° (ESE) 20:03:51 437.568
SO-50 29 Mar 19:55:47 20:00:12 41° 309° (NW) 20:04:46 436.795
AAUSAT CUBESAT 2 29 Mar 20:04:17 20:06:06 13° 66° (ENE) 20:08:07 437.432
BEESAT 3 29 Mar 20:04:32 20:08:24 39° 244° (WSW) 20:12:10 437.485
M-CUBED/EXP-1 PRIME 29 Mar 20:04:59 20:07:28 14° 302° (WNW) 20:09:44 437.505
SEEDS 29 Mar 20:08:14 20:11:16 20° 68° (ENE) 20:14:27 437.485
HO-68 29 Mar 20:11:31 20:18:18 49° 68° (ENE) 20:25:12 435.675
GONETS M04 29 Mar 20:24:42 20:33:21 67° 281° (WNW) 20:42:04
COMPASS 1 29 Mar 20:29:42 20:33:15 28° 70° (ENE) 20:36:53 437.405
BRITE-PL 29 Mar 20:30:20 20:35:05 83° 77° (ENE) 20:39:31 437.365/2234.400
Oscar 11 29 Mar 20:31:31 20:33:23 13° 65° (ENE) 20:35:28 145.826/435.025
CUBESAT XI-V 29 Mar 20:39:49 20:43:09 19° 293° (WNW) 20:46:20 437.345
AIST 2 29 Mar 20:40:53 20:45:05 59° 242° (WSW) 20:49:11 435.215
CINEMA 3 29 Mar 20:41:44 20:44:58 22° 69° (ENE) 20:48:16 145.822/145.860
UWE-3 29 Mar 20:48:11 20:49:31 12° 65° (ENE) 20:51:04 435.000/436.395/437.385
DANDE 29 Mar 20:50:24 20:52:45 20° 97° (E) 20:54:55 436.750
CUBEBUG 2 29 Mar 20:52:36 20:55:04 16° 67° (ENE) 20:57:42 437.445
RS-15 29 Mar 20:53:19 21:03:53 51° 314° (NW) 21:14:38 29.354- 29.394
ZACube-1 29 Mar 20:56:12 20:57:29 11° 65° (ENE) 20:58:59 437.345
CANX-2 29 Mar 20:59:52 21:04:06 79° 258° (WSW) 21:08:23 2200.000
DOVE 4 29 Mar 21:03:15 21:07:37 81° 77° (ENE) 21:11:49 437.250
BEESAT 2 29 Mar 21:08:20 21:09:15 10° 251° (WSW) 21:09:55 435.950
CUTE 1.7 + AOD 2 29 Mar 21:13:50 21:18:01 60° 260° (W) 21:22:14 437.475
DELFI C3 29 Mar 21:15:31 21:18:59 28° 71° (ENE) 21:22:31 145.870
GOMX 1 29 Mar 21:16:01 21:20:24 48° 261° (W) 21:24:33 467.674
STRAND 1 29 Mar 21:34:43 21:37:25 14° 298° (WNW) 21:39:53 437.568
UKube-1 29 Mar 21:36:14 21:39:47 26° 69° (ENE) 21:43:25 .
AAUSAT CUBESAT 2 29 Mar 21:37:14 21:41:19 54° 260° (W) 21:45:26 437.432
CUSAT 1 29 Mar 21:41:34 21:44:12 31° 282° (WNW) 21:46:36 437.405
HUMSAT D 29 Mar 21:42:58 21:45:50 19° 68° (ENE) 21:48:49 437.325/437.525
SEEDS 29 Mar 21:43:05 21:46:55 33° 264° (W) 21:50:44 437.485
DX 1 29 Mar 21:46:26 21:50:23 35° 71° (ENE) 21:54:22 434.975-435.025
HO-68 29 Mar 22:00:02 22:06:18 31° 265° (W) 22:12:28 435.675
ISS 29 Mar 22:04:47 22:07:19 21° 133° (SE) 22:09:54 145.825
Oscar 11 29 Mar 22:04:54 22:09:08 58° 260° (W) 22:13:26 145.826/435.025
COMPASS 1 29 Mar 22:05:36 22:08:58 23° 267° (W) 22:12:17 437.405
FUNcube-1 29 Mar 22:16:13 22:20:22 88° 262° (W) 22:24:32 145.935
CINEMA 3 29 Mar 22:18:28 22:22:07 27° 265° (W) 22:25:40 145.822/145.860
UWE-3 29 Mar 22:21:33 22:25:38 59° 260° (W) 22:29:45 435.000/436.395/437.385
50 SAT 29 Mar 22:24:27 22:28:01 35° 72° (ENE) 22:31:39 437.505
CUBEBUG 2 29 Mar 22:27:35 22:31:30 40° 262° (W) 22:35:26 437.445
VELOX 1 29 Mar 22:27:36 22:31:46 41° 72° (ENE) 22:35:58 145.980
CUBEBUG 1 29 Mar 22:27:49 22:30:53 19° 67° (ENE) 22:34:04 437.445
GONETS M04 29 Mar 22:28:44 22:32:24 12° 305° (NW) 22:35:25
ZACube-1 29 Mar 22:29:20 22:33:25 60° 260° (W) 22:37:32 437.345
AISAT 29 Mar 22:32:20 22:36:36 48° 73° (ENE) 22:40:54 437.250
UNISAT 6 29 Mar 22:36:06 22:39:16 19° 92° (E) 22:42:36 437.425
PCSat 29 Mar 22:45:36 22:49:07 18° 43° (NE) 22:52:46 145.827
TIGRISAT 29 Mar 22:45:51 22:49:27 23° 94° (E) 22:53:10 435.000
DELFI C3 29 Mar 22:50:59 22:54:11 22° 267° (W) 22:57:19 145.870
ESTCUBE 1 29 Mar 23:02:56 23:07:21 51° 73° (ENE) 23:11:47 437.505/2401.250
QB50P1 29 Mar 23:09:58 23:13:03 20° 93° (E) 23:16:15 145.935-145.965
DUCHIFAT 1 29 Mar 23:11:35 23:14:41 20° 93° (E) 23:17:55 145.980
RS-15 29 Mar 23:11:56 23:19:53 21° 345° (NNW) 23:27:50 29.354- 29.394
UKube-1 29 Mar 23:12:09 23:15:53 27° 264° (W) 23:19:34 .
ANTELSAT 29 Mar 23:15:43 23:20:11 49° 99° (E) 23:24:44 437.575/2403.000
HUMSAT D 29 Mar 23:17:42 23:21:25 33° 263° (W) 23:25:08 437.325/437.525
DX 1 29 Mar 23:23:30 23:26:46 20° 267° (W) 23:29:55 434.975-435.025
QB50P2 29 Mar 23:24:27 23:28:11 30° 96° (E) 23:31:57 145.880/145.840
ISS 29 Mar 23:40:28 23:43:35 40° 329° (NNW) 23:46:40 145.825
BUGSAT 1 29 Mar 23:50:04 23:53:52 39° 98° (E) 23:57:40 437.445
POPSAT HIP 1 29 Mar 23:52:48 23:57:00 63° 101° (E) 00:01:12 437.405
TISAT 1 29 Mar 23:58:25 00:02:19 38° 72° (ENE) 00:06:15 437.305
50 SAT 30 Mar 00:00:40 00:03:08 16° 269° (W) 00:05:27 437.505
CUBEBUG 1 30 Mar 00:02:53 00:07:02 38° 263° (W) 00:11:09 437.445
NANOSAT C BR1 30 Mar 00:03:13 00:07:28 83° 102° (ESE) 00:11:42 145.865
VELOX 1 30 Mar 00:05:32 00:08:34 17° 268° (W) 00:11:27 145.980
POLYITAN 1 30 Mar 00:07:50 00:12:06 85° 284° (WNW) 00:16:22 437.675
SPROUT 30 Mar 00:10:01 00:14:15 63° 75° (ENE) 00:18:31 437.525
AISAT 30 Mar 00:10:54 00:13:32 15° 269° (W) 00:15:59 437.250
UNISAT 6 30 Mar 00:11:55 00:16:15 42° 288° (WNW) 00:20:38 437.425
ITUPSAT 1 30 Mar 00:13:22 00:13:40 10° 61° (ENE) 00:14:15 437.325
YUBILEINY 30 Mar 00:22:00 00:30:06 40° 72° (ENE) 00:38:13 435.215
TIGRISAT 30 Mar 00:22:07 00:26:16 34° 289° (WNW) 00:30:25 435.000
PCSat 30 Mar 00:27:48 00:33:15 79° 244° (WSW) 00:38:39 145.827
ESTCUBE 1 30 Mar 00:41:56 00:44:36 15° 270° (W) 00:47:03 437.505/2401.250
QB50P1 30 Mar 00:45:14 00:49:02 32° 289° (WNW) 00:52:47 145.935-145.965
DUCHIFAT 1 30 Mar 00:46:51 00:50:37 31° 289° (WNW) 00:54:20 145.980
ANTELSAT 30 Mar 00:53:38 00:56:39 17° 294° (WNW) 00:59:33 437.575/2403.000
SWISSCUBE 30 Mar 00:56:44 01:00:55 31° 69° (ENE) 01:05:09 437.505
BEESAT 30 Mar 00:59:39 01:03:47 30° 69° (ENE) 01:08:01 436.000
QB50P2 30 Mar 01:00:37 01:03:58 22° 291° (WNW) 01:07:13 145.880/145.840
ISS 30 Mar 01:19:01 01:20:40 13° 348° (NNW) 01:22:16 145.825
BUGSAT 1 30 Mar 01:26:34 01:29:06 16° 293° (WNW) 01:31:29 437.445
RS-15 30 Mar 01:29:29 01:37:49 23° 20° (NNE) 01:46:38 29.354- 29.394
POPSAT HIP 1 30 Mar 01:30:51 01:32:26 12° 295° (WNW) 01:33:49 437.405
TISAT 1 30 Mar 01:35:30 01:38:19 17° 268° (W) 01:40:59 437.305
ITUPSAT 1 30 Mar 01:46:04 01:50:54 88° 76° (ENE) 01:55:46 437.325
SPROUT 30 Mar 01:49:47 01:50:51 11° 272° (W) 01:51:38 437.525
ITAMSAT 1 30 Mar 01:58:21 01:59:53 11° 87° (E) 02:01:47 435.822/435.867
YUBILEINY 30 Mar 02:18:48 02:27:03 45° 271° (W) 02:35:07 435.215
Oscar 19 30 Mar 02:28:07 02:33:19 78° 102° (ESE) 02:38:31 437.125/150
SWISSCUBE 30 Mar 02:34:40 02:38:47 27° 265° (W) 02:42:50 437.505
KKS-1 30 Mar 02:35:56 02:40:15 55° 74° (ENE) 02:44:37 437.445
BEESAT 30 Mar 02:37:31 02:41:38 28° 265° (W) 02:45:42 436.000
SO-50 30 Mar 02:47:45 02:51:34 22° 43° (NE) 02:55:27 436.795
Gurwin Techsat 1B 30 Mar 02:48:05 02:52:44 31° 95° (E) 02:57:26 435.225
ISS 30 Mar 02:56:53 02:58:09 12° 8° (N) 02:59:27 145.825
STARS 30 Mar 03:06:32 03:10:54 77° 76° (ENE) 03:15:17 437.465
ITAMSAT 1 30 Mar 03:34:55 03:40:08 79° 284° (WNW) 03:45:17 435.822/435.867
RS-15 30 Mar 03:42:14 03:53:29 58° 49° (NE) 04:05:17 29.354- 29.394
AIST 1 30 Mar 04:03:24 04:07:34 44° 93° (E) 04:11:47
Oscar 19 30 Mar 04:09:31 04:12:06 14° 298° (WNW) 04:14:25 437.125/150
O/OREOS (USA 219) 30 Mar 04:13:20 04:17:54 74° 110° (ESE) 04:22:31 437.305
KKS-1 30 Mar 04:15:10 04:17:20 13° 270° (W) 04:19:15 437.445
MOZHAYETS 4 30 Mar 04:15:25 04:19:36 35° 71° (ENE) 04:23:51
SO-50 30 Mar 04:27:38 04:32:30 56° 242° (WSW) 04:37:17 436.795
Gurwin Techsat 1B 30 Mar 04:27:59 04:32:43 33° 291° (WNW) 04:37:21 435.225
ISS 30 Mar 04:32:27 04:35:22 30° 28° (NNE) 04:38:16 145.825
HORYU 2 30 Mar 04:40:44 04:45:15 85° 287° (WNW) 04:49:47 437.375
GONETS M04 30 Mar 04:43:05 04:45:05 11° 53° (NE) 04:47:49
AO-7 30 Mar 04:43:22 04:51:24 52° 101° (E) 04:59:27 29.400- 29.500
JAS-2 30 Mar 04:50:42 04:58:17 57° 98° (E) 05:05:15 435.910
AUBIESAT-1 30 Mar 04:51:36 04:55:25 41° 66° (ENE) 04:59:35 437.475
M-CUBED/EXP-1 PRIME 30 Mar 05:16:25 05:20:26 89° 263° (W) 05:24:50 437.505
VERMONT LUNAR 30 Mar 05:30:13 05:33:19 37° 158° (SSE) 05:36:28 437.305
STRAND 1 30 Mar 05:33:24 05:35:22 13° 61° (ENE) 05:37:36 437.568
AIST 1 30 Mar 05:42:50 05:45:34 15° 291° (WNW) 05:48:06
MOZHAYETS 4 30 Mar 05:53:20 05:56:57 22° 267° (W) 06:00:30
RS-15 30 Mar 05:55:04 06:05:46 44° 250° (WSW) 06:16:39 29.354- 29.394
O/OREOS (USA 219) 30 Mar 05:55:46 05:57:58 13° 309° (NW) 05:59:58 437.305
CUTE-I 30 Mar 06:02:40 06:05:26 15° 89° (E) 06:08:29 437.470
Cubesat XI-IV 30 Mar 06:03:00 06:05:52 15° 89° (E) 06:09:00 437.490
CUBESAT XI-V 30 Mar 06:04:17 06:08:37 39° 72° (ENE) 06:13:01 437.345
ISS 30 Mar 06:08:51 06:11:46 31° 224° (SW) 06:14:39 145.825
PHONESAT 2.4 30 Mar 06:16:30 06:19:46 36° 156° (SSE) 06:23:03 2401.200-2431.200
AUBIESAT-1 30 Mar 06:27:54 06:30:34 16° 266° (W) 06:33:12 437.475
PRISM 30 Mar 06:34:39 06:38:49 68° 75° (ENE) 06:43:02 437.425
GONETS M04 30 Mar 06:35:37 06:44:21 61° 78° (ENE) 06:53:05
JAS-2 30 Mar 06:36:18 06:42:53 31° 297° (WNW) 06:48:56 435.910
AO-7 30 Mar 06:36:36 06:43:59 36° 299° (WNW) 06:51:14 29.400- 29.500
